Regional Weather Roundup
Issued by NWS

Home | Current Version | Previous Version | Graphics & Text | Print | Product List | Glossary On
Versions: 1 2 3 4 5 6 7 8 9 10 11 12 13 14 15 16 17 18 19 20 21 22 23 24 25 26 27 28 29 30 31 32 33 34 35 36 37 38 39 40 41 42 43 44 45 46 47 48 49 50
000
ASUS43 KLOT 020458
RWRIL

ILLINOIS REGIONAL WEATHER ROUNDUP
NATIONAL WEATHER SERVICE CHICAGO/ROMEOVILLE IL
1200 AM CDT TUE SEP 02 2014

NOTE: "FAIR" INDICATES FEW OR NO CLOUDS BELOW 12,000 FEET WITH NO
SIGNIFICANT WEATHER AND/OR OBSTRUCTIONS TO VISIBILITY.

* THESE STATIONS ARE NOT UNDER NWS QUALITY CONTROL. THEY ALSO MAY NOT
  REPORT WEATHER SUCH AS PRECIPITATION OR FOG.

ILZ001-002-007-009-015-016-024-020600-
NORTHWEST ILLINOIS

CITY           SKY/WX    TMP DP  RH WIND       PRES   REMARKS
MOLINE         LGT RAIN  69  66  90 SE5       29.86F
$$

ILZ003-004-008-010-011-017-018-020600-
NORTH CENTRAL ILLINOIS

CITY           SKY/WX    TMP DP  RH WIND       PRES   REMARKS
ROCKFORD       NOT AVBL
$$

ILZ005-006-012>014-019>023-020600-
NORTHEAST ILLINOIS

CITY           SKY/WX    TMP DP  RH WIND       PRES   REMARKS
CHICAGO-OHARE  CLOUDY    72  66  81 W6        29.86R
CHICAGO-MIDWAY CLOUDY    76  68  76 SW13      29.86R
AURORA         MOCLDY    71  66  84 SW5       29.87R
WAUKEGAN       PTCLDY    67  65  93 VRB3      29.84S
DUPAGE AIRPORT CLOUDY    70  67  90 SW5       29.87R
WHEELING       MOCLDY    73  67  81 SW5       29.88R
NORTHERLY ISL    N/A     75  65  70 W9          N/A
$$

LMZ740>746-020600-
SOUTHERN LAKE MICHIGAN

STATION/POSITION SKY/WX   TEMP    WIND        PRES    VSBY  WAVE
                          AIR SEA DIR/SP/G                  HT/PER
                          (F)     (DEG/KT/KT) (MB)    (MI)  (FT/S)
SOUTHERN BUOY              71 70  240/  8/ 10 1009.5R         2/ 4
WAUKEGAN HARBOR            69     260/  7/  9   N/A
HARRISON CRIB              75     250/ 12/ 15   N/A
BURNHAM HARBOR             75     270/  6/ 12   N/A
CALUMET HARBOR             74     230/  5/  7 1010.1R
MICHIGAN CITY              73     190/ 14/ 17   N/A
MICHIGAN CITY 6N           74 72  220/ 14/ 17   N/A           2/ 3
ST. JOSEPH                 73 72  200/ 14/ 17   N/A           3/ 4
$$

ILZ025>027-034>036-040-047-049-050-058-095>099-020600-
WEST-CENTRAL ILLINOIS

CITY           SKY/WX    TMP DP  RH WIND       PRES   REMARKS
$$

ILZ028>032-037-038-041>044-048-051>054-059>061-020600-
CENTRAL ILLINOIS

CITY           SKY/WX    TMP DP  RH WIND       PRES   REMARKS
PEORIA         NOT AVBL
SPRINGFIELD    LGT RAIN  71  69  93 S6        29.89F
TAYLORVILLE    NOT AVBL
$$

ILZ033-039-045-046-055>057-062-063-020600-
EAST-CENTRAL ILLINOIS

CITY           SKY/WX    TMP DP  RH WIND       PRES   REMARKS
CHAMPAIGN      RAIN      71  67  87 SW8       29.91F
MATTOON        LGT RAIN  69  67  93 S9        29.94F
$$

ILZ079-100>102-020600-
SOUTHWEST ILLINOIS

CITY           SKY/WX    TMP DP  RH WIND       PRES   REMARKS
BELLEVILLE     TSTM      73  72  94 W20G37    29.92R FOG
CAHOKIA*       HVY RAIN  69  68  96 NE6       29.91F FOG
$$

ILZ064>066-069>071-074>076-080>082-084>086-088>090-092>094-020600-
SOUTH-CENTRAL ILLINOIS

CITY           SKY/WX    TMP DP  RH WIND       PRES   REMARKS
CARBONDALE     CLOUDY    76  72  87 S8        29.92R
$$

ILZ067-068-072-073-078-083-087-091-020600-
SOUTHEAST ILLINOIS

CITY           SKY/WX    TMP DP  RH WIND       PRES   REMARKS
LAWRENCEVILLE  CLOUDY    75  72  90 S7        29.92F
$$

ABBREVIATIONS USED IN REMARKS
   TC - TEMPERATURE IN CELSIUS
  WCI - WIND CHILL INDEX
   HX - HEAT INDEX
  VSB - VISIBILITY
$$



USA.gov is the U.S. government's official web portal to all federal, state and local government web resources and services.